Flag for Pakistan Weather past 2 weeks in Karachi, Pakistan

Now
70 °F

Clear.


Feels Like: 70 °F
Forecast: 81 / 95 °F
Wind: 3 mph from North

Location: Karachi Airport

Current Time: Oct 26, 2014 at 6:33:51 AM

Latest Report: Oct 26, 2014 at 5:55 AM


Visibility: 2 mi

Pressure: 29.89 "Hg

Humidity: 33%

Dew point: 39 °F

Location of KarachiLocation

Historic Weather in Karachi — Graph

°F

Karachi temperature yesterday

Maximum temperature yesterday: 95 °F (at 12:25 PM)
Minimum temperature yesterday: 66 °F (at 4:55 AM)
Average temperature yesterday: 81 °F

Past Weeks' High & Low Weather Summary

 TemperatureHumidityPressure
High104 °F (Oct 11, 1:55 PM)89% (Oct 20, 7:55 AM)30.04 "Hg (Oct 20, 7:55 AM)
Low66 °F (Oct 25, 4:55 AM)9% (Oct 11, 1:55 PM)29.62 "Hg (Oct 18, 12:25 PM)
Average84 °F39%29.88 "Hg
* Reported Oct 11 4:25 AM — Oct 26 4:55 AM, Karachi, Weather by CustomWeather, © 2014

Note: Actual official high and low records may vary slightly from our data, if they occured in-between our weather recording intervals... More about our weather records

Advertising

Karachi weather history for previous 24 hours

 ConditionsComfort  
Time TempWeatherWind HumidityBarometerVisibility
4:55 AM
Oct 26
72 °FClear.3 mph33%29.86 "Hg2 mi
4:25 AM72 °FClear.5 mph31%29.86 "Hg2 mi
3:55 AM72 °FClear.5 mph31%29.86 "Hg2 mi
3:25 AM73 °FClear.6 mph36%29.86 "Hg2 mi
2:55 AM73 °FClear.5 mph36%29.86 "Hg2 mi
2:25 AM73 °FClear.6 mph41%29.86 "Hg2 mi
1:55 AM75 °FClear.5 mph41%29.86 "Hg2 mi
1:25 AM75 °FClear.3 mph41%29.86 "Hg2 mi
12:55 AM75 °FClear.5 mph41%29.89 "Hg2 mi
12:25 AM75 °FClear.6 mph41%29.89 "Hg2 mi
11:55 PM
Oct 25
77 °FHaze.5 mph42%29.89 "Hg2 mi
11:25 PM77 °FHaze.5 mph36%29.89 "Hg2 mi
10:55 PM77 °FHaze.5 mph34%29.89 "Hg2 mi
10:25 PM79 °FHaze.5 mph32%29.89 "Hg3 mi
9:55 PM79 °FHaze.6 mph34%29.89 "Hg3 mi
9:25 PM81 °FHaze.5 mph34%29.89 "Hg3 mi
8:25 PM82 °FClear.No wind35%29.89 "Hg4 mi
7:55 PM84 °FClear.7 mph35%29.86 "Hg4 mi
7:25 PM86 °FClear.6 mph33%29.86 "Hg4 mi
6:55 PM88 °FClear.6 mph27%29.86 "Hg4 mi
6:25 PM90 °FClear.7 mph26%29.83 "Hg4 mi
5:55 PM91 °FClear.9 mph24%29.83 "Hg5 mi
5:25 PM93 °FClear.8 mph19%29.83 "Hg5 mi
4:55 PM95 °FClear.9 mph13%29.83 "Hg6 mi
3:55 PM95 °FClear.6 mph12%29.80 "Hg6 mi
3:25 PM95 °FClear.6 mph12%29.83 "Hg6 mi
2:55 PM95 °FClear.7 mph12%29.83 "Hg6 mi
2:25 PM95 °FClear.8 mph11%29.83 "Hg6 mi
1:55 PM95 °FClear.9 mph11%29.83 "Hg4 mi
1:25 PM95 °FClear.5 mph11%29.86 "Hg4 mi
12:55 PM95 °FClear.9 mph10%29.86 "Hg4 mi
12:25 PM95 °FClear.7 mph9%29.89 "Hg4 mi
11:55 AM93 °FClear.No wind13%29.89 "Hg4 mi
11:25 AM73 °FClear.7 mph25%29.92 "Hg4 mi
10:55 AM90 °FClear.3 mph17%29.92 "Hg4 mi
10:25 AM86 °FClear.2 mph20%29.92 "Hg4 mi
9:55 AM84 °FClear.6 mph22%29.92 "Hg4 mi
9:25 AM81 °FClear.5 mph24%29.92 "Hg4 mi
8:55 AM79 °FClear.5 mph26%29.92 "Hg4 mi
8:25 AM75 °FClear.3 mph39%29.89 "Hg4 mi
7:55 AM70 °FClear.5 mph53%29.89 "Hg4 mi
7:25 AM66 °FClear.3 mph60%29.89 "Hg4 mi
6:55 AM66 °FClear.3 mph64%29.89 "Hg4 mi
6:25 AM66 °FClear.5 mph64%29.86 "Hg4 mi
Weather by CustomWeather, © 2014

See weather overviewHow to use our weather pages